User: anonymous   Login
Location: Fremont
(37.5480°N, 121.9880°W)
Time: 02:22:06
(UTC-08:00)
Language:

Cosmos 1844 Rocket - Orbit

View from above orbital plane
View from above orbital plane
View from above satellite
View from above satellite

Ground track
Ground track

The orbit data is extracted from the following two-line orbital elements,

1 17974U 87041B   17054.56368749 -.00000234  00000-0 -92299-4 0  9999
2 17974  71.0088 149.2361 0015221 215.0607 235.8792 14.17218056540585
Epoch (UTC): 23 February 2017 13:31:42
Eccentricity: 0.0015221
inclination: 71.0088°
perigee height: 824 km
apogee height: 846 km
right ascension of ascending node: 149.2361°
argument of perigee: 215.0607°
revolutions per day: 14.17218056
mean anomaly at epoch: 235.8792°
orbit number at epoch: 54058

The dashed part of the orbit path shows where the satellite is in the earth's shadow,  

DLR